Torna al catalogo

USA 573

AttivoMilitareVLEO
NORAD 67485·PAYLOAD·🇺🇸 United States

Lanciato Jan 17, 2026 da Vandenberg Space Force Base

Loading…

Prossimi Passaggi (prossime 24 ore)

TLE

ObsoletoSource: Mike McCants

Epoca: Mar 20, 2026, 01:49 UTC

1 67485U 26011B   26079.07599469 0.00000000  00000-0  00000-0 0    06
2 67485  70.0000 100.9190 0002000 154.1430 205.8569 14.96712962    01

Traccia USA 573 in tempo reale con AllMySat

Download on the App Store